Location: Chassagnes
(44.4047°N, 4.1657°E)
Time: 12:39:43
(UTC+00:00)

CSL-04 Rocket - Pass Details

Date: 27 October 2020
Orbit: 805 x 861 km, 98.9° (Epoch: 23 November)

Event Time Altitude Azimuth Distance (km) Brightness Sun altitude
Exits shadow 19:07:39 - 179° (S) 3,032 6.5 -27.0°
Reaches altitude 10° 19:09:04 10° 182° (S) 2,489 6.1 -27.3°
Maximum altitude 19:14:29 54° 259° (W) 1,034 4.3 -28.2°
Drops below altitude 10° 19:19:54 10° 337° (NNW) 2,488 6.5 -29.2°
Sets 19:22:20 0° 342° (NNW) 3,421 7.2 -29.6°
